Location: ??????
(30.5519°N, 47.7720°E)
Time: 17:26:00
(UTC+00:00)

Cosmos 990 Rocket - Pass Details

Date: 24 January 2021
Orbit: 748 x 768 km, 74.0° (Epoch: 02 March)

Event Time Altitude Azimuth Distance (km) Brightness Sun altitude
Rises 15:06:07 0° 202° (SSW) 3,213 7.8 -10.6°
Reaches altitude 10° 15:08:30 10° 206° (SSW) 2,288 7.1 -11.1°
Maximum altitude 15:13:39 64° 287° (WNW) 839 4.4 -12.1°
Drops below altitude 10° 15:18:48 10° 9° (N) 2,286 6.2 -13.2°
Sets 15:21:11 0° 13° (NNE) 3,211 7.0 -13.7°
